Year,Month,Day,Hour,Minute,Value (Times are PST for temperature in C)
2021,04,23,07,37,7.70
2021,04,23,07,38,7.70
2021,04,23,07,39,7.80
2021,04,23,07,40,7.80
2021,04,23,07,41,7.80
2021,04,23,07,42,7.90
2021,04,23,07,43,7.90
2021,04,23,07,44,8.00
2021,04,23,07,45,8.00
2021,04,23,07,46,8.10
2021,04,23,07,47,8.10
2021,04,23,07,48,8.10
2021,04,23,07,49,8.20
2021,04,23,07,50,8.20
2021,04,23,07,51,8.30
2021,04,23,07,52,8.30
2021,04,23,07,53,8.40
2021,04,23,07,54,8.50
2021,04,23,07,55,8.60
2021,04,23,07,56,8.70
2021,04,23,07,57,8.70
2021,04,23,07,58,8.80
2021,04,23,07,59,8.90
2021,04,23,08,00,9.00
2021,04,23,08,01,9.10
2021,04,23,08,02,9.20
2021,04,23,08,03,9.40
2021,04,23,08,04,9.50
2021,04,23,08,05,9.60
2021,04,23,08,06,9.60
2021,04,23,08,07,9.70
2021,04,23,08,08,9.80
2021,04,23,08,09,9.90
2021,04,23,08,10,9.90
2021,04,23,08,11,10.00
2021,04,23,08,12,10.10
2021,04,23,08,13,10.20
2021,04,23,08,14,10.30
2021,04,23,08,15,10.40
2021,04,23,08,16,10.50
2021,04,23,08,17,10.60
2021,04,23,08,18,10.70
2021,04,23,08,19,10.80
2021,04,23,08,20,10.80
2021,04,23,08,21,10.80
2021,04,23,08,22,10.90
2021,04,23,08,23,11.00
2021,04,23,08,24,11.00
2021,04,23,08,25,11.10
2021,04,23,08,26,11.20
2021,04,23,08,27,11.30
2021,04,23,08,28,11.40
2021,04,23,08,29,11.50
2021,04,23,08,30,11.60
2021,04,23,08,31,11.70
2021,04,23,08,32,11.80
2021,04,23,08,33,12.00
2021,04,23,08,34,12.00
2021,04,23,08,35,12.00
2021,04,23,08,36,12.00
2021,04,23,08,37,12.00
2021,04,23,08,38,11.90
2021,04,23,08,39,11.90
2021,04,23,08,40,11.80
2021,04,23,08,41,11.80
2021,04,23,08,42,11.80
2021,04,23,08,43,11.90
2021,04,23,08,44,11.90
2021,04,23,08,45,11.90
2021,04,23,08,46,11.80
2021,04,23,08,47,11.80
2021,04,23,08,48,11.80
2021,04,23,08,49,11.80
2021,04,23,08,50,11.80
2021,04,23,08,51,11.80
2021,04,23,08,52,11.80
2021,04,23,08,53,11.90
2021,04,23,08,54,11.90
2021,04,23,08,55,11.90
2021,04,23,08,56,11.90
2021,04,23,08,57,12.00
2021,04,23,08,58,12.00
2021,04,23,08,59,12.10
2021,04,23,09,00,12.10
2021,04,23,09,01,12.00
2021,04,23,09,02,12.00
2021,04,23,09,03,12.00
2021,04,23,09,04,12.00
2021,04,23,09,05,12.00
2021,04,23,09,06,12.10
2021,04,23,09,07,12.20
2021,04,23,09,08,12.30
2021,04,23,09,09,12.40
2021,04,23,09,10,12.40
2021,04,23,09,11,12.50
2021,04,23,09,12,12.50
2021,04,23,09,13,12.50
2021,04,23,09,14,12.50
2021,04,23,09,15,12.60
2021,04,23,09,16,12.60
2021,04,23,09,17,12.60
2021,04,23,09,18,12.70
2021,04,23,09,19,12.70
2021,04,23,09,20,12.80
2021,04,23,09,21,12.90
2021,04,23,09,22,13.00
2021,04,23,09,23,13.00
2021,04,23,09,24,13.00
2021,04,23,09,25,13.00
2021,04,23,09,26,13.10
2021,04,23,09,27,13.10
2021,04,23,09,28,13.10
2021,04,23,09,29,13.20
2021,04,23,09,30,13.30
2021,04,23,09,31,13.40
2021,04,23,09,32,13.40
2021,04,23,09,33,13.40
2021,04,23,09,34,13.40
2021,04,23,09,35,13.30
2021,04,23,09,36,13.20
2021,04,23,09,37,13.10
2021,04,23,09,38,13.00
2021,04,23,09,39,12.90
2021,04,23,09,40,12.90
2021,04,23,09,41,12.90
2021,04,23,09,42,12.90
2021,04,23,09,43,12.90
2021,04,23,09,44,12.90
2021,04,23,09,45,12.80
2021,04,23,09,46,12.80
2021,04,23,09,47,12.80
2021,04,23,09,48,12.80
2021,04,23,09,49,12.90
2021,04,23,09,50,12.90
2021,04,23,09,51,12.80
2021,04,23,09,52,12.80
2021,04,23,09,53,12.80
2021,04,23,09,54,12.90
2021,04,23,09,55,12.90
2021,04,23,09,56,13.00
2021,04,23,09,57,13.00
2021,04,23,09,58,13.00
2021,04,23,09,59,12.90
2021,04,23,10,00,12.90
2021,04,23,10,01,12.90
2021,04,23,10,02,12.80
2021,04,23,10,03,12.80
2021,04,23,10,04,12.70
2021,04,23,10,05,12.70
2021,04,23,10,06,12.70
2021,04,23,10,07,12.70
2021,04,23,10,08,12.80
2021,04,23,10,09,12.90
2021,04,23,10,10,13.00
2021,04,23,10,11,13.20
2021,04,23,10,12,13.20
2021,04,23,10,13,13.30
2021,04,23,10,14,13.50
2021,04,23,10,15,13.50
2021,04,23,10,16,13.50
2021,04,23,10,17,13.50
2021,04,23,10,18,13.50
2021,04,23,10,19,13.50
2021,04,23,10,20,13.30
2021,04,23,10,21,13.30
2021,04,23,10,22,13.30
2021,04,23,10,23,13.30
2021,04,23,10,24,13.40
2021,04,23,10,25,13.40
2021,04,23,10,26,13.30
2021,04,23,10,27,13.30
2021,04,23,10,28,13.20
2021,04,23,10,29,13.20
2021,04,23,10,30,13.10
2021,04,23,10,31,13.10
2021,04,23,10,32,13.10
2021,04,23,10,33,13.10
2021,04,23,10,34,13.20
2021,04,23,10,35,13.20
2021,04,23,10,36,13.10
2021,04,23,10,37,13.10
2021,04,23,10,38,13.10
2021,04,23,10,39,13.00
2021,04,23,10,40,13.00
2021,04,23,10,41,13.00
2021,04,23,10,42,13.00
2021,04,23,10,43,13.10
2021,04,23,10,44,13.10
2021,04,23,10,45,13.00
2021,04,23,10,46,13.10
2021,04,23,10,47,13.20
2021,04,23,10,48,13.20
2021,04,23,10,49,13.30
2021,04,23,10,50,13.30
2021,04,23,10,51,13.20
2021,04,23,10,52,13.20
2021,04,23,10,53,13.10
2021,04,23,10,54,13.20
2021,04,23,10,55,13.30
2021,04,23,10,56,13.30
2021,04,23,10,57,13.30
2021,04,23,10,58,13.30
2021,04,23,10,59,13.20
2021,04,23,11,00,13.20
2021,04,23,11,01,13.20
2021,04,23,11,02,13.20
2021,04,23,11,03,13.10
2021,04,23,11,04,13.00
2021,04,23,11,05,13.00
2021,04,23,11,06,13.00
2021,04,23,11,07,13.10
2021,04,23,11,08,13.10
2021,04,23,11,09,13.10
2021,04,23,11,10,13.20
2021,04,23,11,11,13.00
2021,04,23,11,12,13.00
2021,04,23,11,13,12.90
2021,04,23,11,14,12.90
2021,04,23,11,15,12.90
2021,04,23,11,16,13.10
2021,04,23,11,17,13.20
2021,04,23,11,18,13.20
2021,04,23,11,19,13.20
2021,04,23,11,20,13.40
2021,04,23,11,21,13.50
2021,04,23,11,22,13.60
2021,04,23,11,23,13.50
2021,04,23,11,24,13.40
2021,04,23,11,25,13.30
2021,04,23,11,26,13.30
2021,04,23,11,27,13.40
2021,04,23,11,28,13.40
2021,04,23,11,29,13.50
2021,04,23,11,30,13.60
2021,04,23,11,31,13.60
2021,04,23,11,32,13.50
2021,04,23,11,33,13.50
2021,04,23,11,34,13.50
2021,04,23,11,35,13.40
2021,04,23,11,36,13.40
2021,04,23,11,37,13.40
2021,04,23,11,38,13.30
2021,04,23,11,39,13.40
2021,04,23,11,40,13.30
2021,04,23,11,41,13.30
2021,04,23,11,42,13.30
2021,04,23,11,43,13.30
2021,04,23,11,44,13.20
2021,04,23,11,45,13.20
2021,04,23,11,46,13.20
2021,04,23,11,47,13.10
2021,04,23,11,48,13.10
2021,04,23,11,49,13.10
2021,04,23,11,50,13.10
2021,04,23,11,51,13.20
2021,04,23,11,52,13.30
2021,04,23,11,53,13.40
2021,04,23,11,54,13.40
2021,04,23,11,55,13.50
2021,04,23,11,56,13.50
2021,04,23,11,57,13.40
2021,04,23,11,58,13.40
2021,04,23,11,59,13.40
2021,04,23,12,00,13.50
2021,04,23,12,01,13.50
2021,04,23,12,02,13.50
2021,04,23,12,03,13.50
2021,04,23,12,04,13.60
2021,04,23,12,05,13.50
2021,04,23,12,06,13.40
2021,04,23,12,07,13.30
2021,04,23,12,08,13.20
2021,04,23,12,09,13.20
2021,04,23,12,10,13.30
2021,04,23,12,11,13.40
2021,04,23,12,12,13.40
2021,04,23,12,13,13.40
2021,04,23,12,14,13.30
2021,04,23,12,15,13.30
2021,04,23,12,16,13.20
2021,04,23,12,17,13.20
2021,04,23,12,18,13.20
2021,04,23,12,19,13.20
2021,04,23,12,20,13.20
2021,04,23,12,21,13.20
2021,04,23,12,22,13.30
2021,04,23,12,23,13.40
2021,04,23,12,24,13.50
2021,04,23,12,25,13.50
2021,04,23,12,26,13.60
2021,04,23,12,27,13.60
2021,04,23,12,28,13.60
2021,04,23,12,29,13.60
2021,04,23,12,30,13.50
2021,04,23,12,31,13.30
2021,04,23,12,32,13.20
2021,04,23,12,33,13.20
2021,04,23,12,34,13.20
2021,04,23,12,35,13.20
2021,04,23,12,36,13.10
2021,04,23,12,37,13.10
2021,04,23,12,38,13.10
2021,04,23,12,39,13.10
2021,04,23,12,40,13.10
2021,04,23,12,41,13.00
2021,04,23,12,42,13.00
2021,04,23,12,43,13.10
2021,04,23,12,44,13.20
2021,04,23,12,45,13.20
2021,04,23,12,46,13.20
2021,04,23,12,47,13.30
2021,04,23,12,48,13.30
2021,04,23,12,49,13.30
2021,04,23,12,50,13.30
2021,04,23,12,51,13.20
2021,04,23,12,52,13.20
2021,04,23,12,53,13.20
2021,04,23,12,54,13.30
2021,04,23,12,55,13.30
2021,04,23,12,56,13.30
2021,04,23,12,57,13.30
2021,04,23,12,58,13.40
2021,04,23,12,59,13.40
2021,04,23,13,00,13.40
2021,04,23,13,01,13.40
2021,04,23,13,02,13.40
2021,04,23,13,03,13.50
2021,04,23,13,04,13.50
2021,04,23,13,05,13.50
2021,04,23,13,06,13.60
2021,04,23,13,07,13.50
2021,04,23,13,08,13.50
2021,04,23,13,09,13.50
2021,04,23,13,10,13.50
2021,04,23,13,11,13.50
2021,04,23,13,12,13.60
2021,04,23,13,13,13.60
2021,04,23,13,14,13.60
2021,04,23,13,15,13.60
2021,04,23,13,16,13.60
2021,04,23,13,17,13.60
2021,04,23,13,18,13.60
2021,04,23,13,19,13.60
2021,04,23,13,20,13.60
2021,04,23,13,21,13.70
2021,04,23,13,22,13.70
2021,04,23,13,23,13.70
2021,04,23,13,24,13.70
2021,04,23,13,25,13.70
2021,04,23,13,26,13.70
2021,04,23,13,27,13.70
2021,04,23,13,28,13.70
2021,04,23,13,29,13.80
2021,04,23,13,30,13.80
2021,04,23,13,31,13.80
2021,04,23,13,32,13.70
2021,04,23,13,33,13.70
2021,04,23,13,34,13.60
2021,04,23,13,35,13.60
2021,04,23,13,36,13.70
2021,04,23,13,37,13.70
2021,04,23,13,38,13.70
2021,04,23,13,39,13.70
2021,04,23,13,40,13.70
2021,04,23,13,41,13.80
2021,04,23,13,42,13.70
2021,04,23,13,43,13.70
2021,04,23,13,44,13.70
2021,04,23,13,45,13.70
2021,04,23,13,46,13.70
2021,04,23,13,47,13.70
2021,04,23,13,48,13.80
2021,04,23,13,49,13.80
2021,04,23,13,50,13.80
2021,04,23,13,51,13.80
2021,04,23,13,52,13.70
2021,04,23,13,53,13.60
2021,04,23,13,54,13.50
2021,04,23,13,55,13.40
2021,04,23,13,56,13.40
2021,04,23,13,57,13.50
2021,04,23,13,58,13.50
2021,04,23,13,59,13.50
2021,04,23,14,00,13.50
2021,04,23,14,01,13.50
2021,04,23,14,02,13.50
2021,04,23,14,03,13.50
2021,04,23,14,04,13.40
2021,04,23,14,05,13.50
2021,04,23,14,06,13.50
2021,04,23,14,07,13.50
2021,04,23,14,08,13.40
2021,04,23,14,09,13.30
2021,04,23,14,10,13.30
2021,04,23,14,11,13.40
2021,04,23,14,12,13.50
2021,04,23,14,13,13.50
2021,04,23,14,14,13.40
2021,04,23,14,15,13.50
2021,04,23,14,16,13.50
2021,04,23,14,17,13.60
2021,04,23,14,18,13.60
2021,04,23,14,19,13.50
2021,04,23,14,20,13.50
2021,04,23,14,21,13.50
2021,04,23,14,22,13.50
2021,04,23,14,23,13.50
2021,04,23,14,24,13.40
2021,04,23,14,25,13.40
2021,04,23,14,26,13.40
2021,04,23,14,27,13.40
2021,04,23,14,28,13.50
2021,04,23,14,29,13.50
2021,04,23,14,30,13.50
2021,04,23,14,31,13.40
2021,04,23,14,32,13.40
2021,04,23,14,33,13.50
2021,04,23,14,34,13.60
2021,04,23,14,35,13.70
2021,04,23,14,36,13.70
2021,04,23,14,37,13.70
2021,04,23,14,38,13.70
2021,04,23,14,39,13.60
2021,04,23,14,40,13.50
2021,04,23,14,41,13.50
2021,04,23,14,42,13.40
2021,04,23,14,43,13.40
2021,04,23,14,44,13.40
2021,04,23,14,45,13.40
2021,04,23,14,46,13.50
2021,04,23,14,47,13.60
2021,04,23,14,48,13.60
2021,04,23,14,49,13.60
2021,04,23,14,50,13.70
2021,04,23,14,51,13.70
2021,04,23,14,52,13.70
2021,04,23,14,53,13.70
2021,04,23,14,54,13.70
2021,04,23,14,55,13.80
2021,04,23,14,56,13.80
2021,04,23,14,57,13.80
2021,04,23,14,58,13.80
2021,04,23,14,59,13.80
2021,04,23,15,00,13.80
2021,04,23,15,01,13.80
2021,04,23,15,02,13.80
2021,04,23,15,03,13.90
2021,04,23,15,04,13.90
2021,04,23,15,05,13.80
2021,04,23,15,06,13.80
2021,04,23,15,07,13.80
2021,04,23,15,08,13.90
2021,04,23,15,09,13.80
2021,04,23,15,10,13.80
2021,04,23,15,11,13.80
2021,04,23,15,12,13.80
2021,04,23,15,13,13.80
2021,04,23,15,14,13.80
2021,04,23,15,15,13.80
2021,04,23,15,16,13.80
2021,04,23,15,17,13.80
2021,04,23,15,18,13.80
2021,04,23,15,19,13.80
2021,04,23,15,20,13.80
2021,04,23,15,21,13.90
2021,04,23,15,22,13.90
2021,04,23,15,23,13.90
2021,04,23,15,24,13.90
2021,04,23,15,25,13.90
2021,04,23,15,26,13.90
2021,04,23,15,27,13.80
2021,04,23,15,28,13.80
2021,04,23,15,29,13.80
2021,04,23,15,30,13.80
2021,04,23,15,31,13.80
2021,04,23,15,32,13.80
2021,04,23,15,33,13.70
2021,04,23,15,34,13.70
2021,04,23,15,35,13.70
2021,04,23,15,36,13.60
2021,04,23,15,37,13.60
2021,04,23,15,38,13.60
2021,04,23,15,39,13.60
2021,04,23,15,40,13.60
2021,04,23,15,41,13.60
2021,04,23,15,42,13.60
2021,04,23,15,43,13.60
2021,04,23,15,44,13.60
2021,04,23,15,45,13.60
2021,04,23,15,46,13.60
2021,04,23,15,47,13.60
2021,04,23,15,48,13.60
2021,04,23,15,49,13.70
2021,04,23,15,50,13.70
2021,04,23,15,51,13.80
2021,04,23,15,52,13.80
2021,04,23,15,53,13.70
2021,04,23,15,54,13.70
2021,04,23,15,55,13.70
2021,04,23,15,56,13.70
2021,04,23,15,57,13.70
2021,04,23,15,58,13.80
2021,04,23,15,59,13.80
2021,04,23,16,00,13.80
2021,04,23,16,01,13.70
2021,04,23,16,02,13.60
2021,04,23,16,03,13.60
2021,04,23,16,04,13.60
2021,04,23,16,05,13.60
2021,04,23,16,06,13.60
2021,04,23,16,07,13.60
2021,04,23,16,08,13.50
2021,04,23,16,09,13.50
2021,04,23,16,10,13.50
2021,04,23,16,11,13.50
2021,04,23,16,12,13.40
2021,04,23,16,13,13.40
2021,04,23,16,14,13.40
2021,04,23,16,15,13.40
2021,04,23,16,16,13.50
2021,04,23,16,17,13.60
2021,04,23,16,18,13.60
2021,04,23,16,19,13.60
2021,04,23,16,20,13.60
2021,04,23,16,21,13.50
2021,04,23,16,22,13.40
2021,04,23,16,23,13.40
2021,04,23,16,24,13.40
2021,04,23,16,25,13.40
2021,04,23,16,26,13.40
2021,04,23,16,27,13.40
2021,04,23,16,28,13.40
2021,04,23,16,29,13.50
2021,04,23,16,30,13.60
2021,04,23,16,31,13.60
2021,04,23,16,32,13.50
2021,04,23,16,33,13.50
2021,04,23,16,34,13.50
2021,04,23,16,35,13.60
2021,04,23,16,36,13.60
2021,04,23,16,37,13.60
2021,04,23,16,38,13.60
2021,04,23,16,39,13.50
2021,04,23,16,40,13.50
2021,04,23,16,41,13.50
2021,04,23,16,42,13.40
2021,04,23,16,43,13.40
2021,04,23,16,44,13.40
2021,04,23,16,45,13.30
2021,04,23,16,46,13.30
2021,04,23,16,47,13.30
2021,04,23,16,48,13.30
2021,04,23,16,49,13.40
2021,04,23,16,50,13.50
2021,04,23,16,51,13.50
2021,04,23,16,52,13.50
2021,04,23,16,53,13.50
2021,04,23,16,54,13.50
2021,04,23,16,55,13.50
2021,04,23,16,56,13.50
2021,04,23,16,57,13.50
2021,04,23,16,58,13.50
2021,04,23,16,59,13.50
2021,04,23,17,00,13.60
2021,04,23,17,01,13.60
2021,04,23,17,02,13.70
2021,04,23,17,03,13.60
2021,04,23,17,04,13.60
2021,04,23,17,05,13.70
2021,04,23,17,06,13.70
2021,04,23,17,07,13.70
2021,04,23,17,08,13.60
2021,04,23,17,09,13.60
2021,04,23,17,10,13.60
2021,04,23,17,11,13.60
2021,04,23,17,12,13.50
2021,04,23,17,13,13.50
2021,04,23,17,14,13.50
2021,04,23,17,15,13.40
2021,04,23,17,16,13.40
2021,04,23,17,17,13.40
2021,04,23,17,18,13.40
2021,04,23,17,19,13.50
2021,04,23,17,20,13.50
2021,04,23,17,21,13.60
2021,04,23,17,22,13.60
2021,04,23,17,23,13.60
2021,04,23,17,24,13.60
2021,04,23,17,25,13.50
2021,04,23,17,26,13.50
2021,04,23,17,27,13.50
2021,04,23,17,28,13.50
2021,04,23,17,29,13.50
2021,04,23,17,30,13.50
2021,04,23,17,31,13.60
2021,04,23,17,32,13.60
2021,04,23,17,33,13.50
2021,04,23,17,34,13.60
2021,04,23,17,35,13.60
2021,04,23,17,36,13.60
2021,04,23,17,37,13.60
2021,04,23,17,38,13.60
2021,04,23,17,39,13.60
2021,04,23,17,40,13.60
2021,04,23,17,41,13.60
2021,04,23,17,42,13.60
2021,04,23,17,43,13.60
2021,04,23,17,44,13.60
2021,04,23,17,45,13.60
2021,04,23,17,46,13.60
2021,04,23,17,47,13.60
2021,04,23,17,48,13.60
2021,04,23,17,49,13.60
2021,04,23,17,50,13.60
2021,04,23,17,51,13.60
2021,04,23,17,52,13.60
2021,04,23,17,53,13.60
2021,04,23,17,54,13.60
2021,04,23,17,55,13.60
2021,04,23,17,56,13.60
2021,04,23,17,57,13.60
2021,04,23,17,58,13.60
2021,04,23,17,59,13.70
2021,04,23,18,00,13.70
2021,04,23,18,01,13.70
2021,04,23,18,02,13.70
2021,04,23,18,03,13.70
2021,04,23,18,04,13.70
2021,04,23,18,05,13.70
2021,04,23,18,06,13.70
2021,04,23,18,07,13.80
2021,04,23,18,08,13.80
2021,04,23,18,09,13.80
2021,04,23,18,10,13.80
2021,04,23,18,11,13.80
2021,04,23,18,12,13.80
2021,04,23,18,13,13.80
2021,04,23,18,14,13.80
2021,04,23,18,15,13.80
2021,04,23,18,16,13.80
2021,04,23,18,17,13.80
2021,04,23,18,18,13.80
2021,04,23,18,19,13.80
2021,04,23,18,20,13.80
2021,04,23,18,21,13.80
2021,04,23,18,22,13.80
2021,04,23,18,23,13.80
2021,04,23,18,24,13.80
2021,04,23,18,25,13.80
2021,04,23,18,26,13.80
2021,04,23,18,27,13.80
2021,04,23,18,28,13.80
2021,04,23,18,29,13.80
2021,04,23,18,30,13.80
2021,04,23,18,31,13.70
2021,04,23,18,32,13.70
2021,04,23,18,33,13.70
2021,04,23,18,34,13.60
2021,04,23,18,35,13.60
2021,04,23,18,36,13.60
2021,04,23,18,37,13.50
2021,04,23,18,38,13.50
2021,04,23,18,39,13.50
2021,04,23,18,40,13.50
2021,04,23,18,41,13.50
2021,04,23,18,42,13.50
2021,04,23,18,43,13.50
2021,04,23,18,44,13.40
2021,04,23,18,45,13.40
2021,04,23,18,46,13.40
2021,04,23,18,47,13.40
2021,04,23,18,48,13.40
2021,04,23,18,49,13.40
2021,04,23,18,50,13.40
2021,04,23,18,51,13.40
2021,04,23,18,52,13.40
2021,04,23,18,53,13.40
2021,04,23,18,54,13.40
2021,04,23,18,55,13.30
2021,04,23,18,56,13.30
2021,04,23,18,57,13.30
2021,04,23,18,58,13.30
2021,04,23,18,59,13.30
2021,04,23,19,00,13.30
2021,04,23,19,01,13.30
2021,04,23,19,02,13.30
2021,04,23,19,03,13.30
2021,04,23,19,04,13.30
2021,04,23,19,05,13.30
2021,04,23,19,06,13.30
2021,04,23,19,07,13.30
2021,04,23,19,08,13.30
2021,04,23,19,09,13.30
2021,04,23,19,10,13.40
2021,04,23,19,11,13.40
2021,04,23,19,12,13.40
2021,04,23,19,13,13.30
2021,04,23,19,14,13.30
2021,04,23,19,15,13.30
2021,04,23,19,16,13.30
2021,04,23,19,17,13.30
2021,04,23,19,18,13.30
2021,04,23,19,19,13.20
2021,04,23,19,20,13.20
2021,04,23,19,21,13.20
2021,04,23,19,22,13.20
2021,04,23,19,23,13.20
2021,04,23,19,24,13.20
2021,04,23,19,25,13.20
2021,04,23,19,26,13.20
2021,04,23,19,27,13.10
2021,04,23,19,28,13.10
2021,04,23,19,29,13.10
2021,04,23,19,30,13.00
2021,04,23,19,31,13.00
2021,04,23,19,32,12.90
2021,04,23,19,33,12.90
2021,04,23,19,34,12.90
2021,04,23,19,35,12.90
2021,04,23,19,36,12.80
2021,04,23,19,37,12.80
2021,04,23,19,38,12.80
2021,04,23,19,39,12.80
2021,04,23,19,40,12.80
2021,04,23,19,41,12.80
2021,04,23,19,42,12.80
2021,04,23,19,43,12.80
2021,04,23,19,44,12.80
2021,04,23,19,45,12.80
2021,04,23,19,46,12.70
2021,04,23,19,47,12.60
2021,04,23,19,48,12.50
2021,04,23,19,49,12.40
2021,04,23,19,50,11.90
2021,04,23,19,51,11.90
2021,04,23,19,52,11.80
2021,04,23,19,53,11.80
2021,04,23,19,54,11.80
2021,04,23,19,55,11.80
2021,04,23,19,56,11.80
2021,04,23,19,57,11.80
2021,04,23,19,58,11.80
2021,04,23,19,59,11.80
2021,04,23,20,00,11.80
2021,04,23,20,01,11.80
2021,04,23,20,02,11.80
2021,04,23,20,03,11.80
